This is the latest recevied weather packets stored in our database for station/object KD8DLP-13. If no packets are shown the sender has not sent any weather packets the latest 10 day(s).
| Time | Temp. | Humidity | Pressure | Rain* | Wind** | Luminosity | Snow |
|---|---|---|---|---|---|---|---|
| 1778003762 | 15° C | 39% | 1009.2 hPa | 0 mm | - | 501 W/m² | - |
| 1778003458 | 15° C | 37% | 1009.4 hPa | 0 mm | - | 589 W/m² | - |
| 1778003155 | 15° C | 38% | 1009.3 hPa | 0 mm | - | 621 W/m² | - |
| 1778002851 | 14.44° C | 39% | 1009.2 hPa | 0 mm | - | 594 W/m² | - |
| 1778002548 | 15° C | 38% | 1009 hPa | 0 mm | - | 661 W/m² | - |
| 1778002245 | 14.44° C | 38% | 1009 hPa | 0 mm | - | 670 W/m² | - |
| 1778001943 | 14.44° C | 38% | 1008.7 hPa | 0 mm | - | 608 W/m² | - |
| 1778001639 | 15° C | 37% | 1008.9 hPa | 0 mm | - | 514 W/m² | - |
| 1778001334 | 15° C | 35% | 1008.6 hPa | 0 mm | - | 622 W/m² | - |
| 1778001031 | 15.56° C | 38% | 1009 hPa | 0 mm | - | 754 W/m² | - |
| 1778000728 | 15° C | 35% | 1008.9 hPa | 0 mm | - | 760 W/m² | - |
| 1778000424 | 15.56° C | 34% | 1008.9 hPa | 0 mm | - | 688 W/m² | - |
| 1778000119 | 15° C | 36% | 1008.8 hPa | 0 mm | - | 613 W/m² | - |
| 1777999815 | 15.56° C | 35% | 1008.6 hPa | 0 mm | - | 787 W/m² | - |
| 1777999511 | 15.56° C | 34% | 1008.6 hPa | 0 mm | - | 720 W/m² | - |
| 1777999210 | 15.56° C | 34% | 1008.8 hPa | 0 mm | - | 747 W/m² | - |
| 1777998908 | 15.56° C | 35% | 1009 hPa | 0 mm | - | 669 W/m² | - |
| 1777998604 | 15.56° C | 35% | 1008.5 hPa | 0 mm | - | 706 W/m² | - |
| 1777998298 | 15.56° C | 35% | 1008.3 hPa | 0 mm | - | 784 W/m² | - |
| 1777997994 | 15.56° C | 35% | 1008.4 hPa | 0 mm | - | 707 W/m² | - |
| 1777997691 | 15.56° C | 33% | 1008.8 hPa | 0 mm | - | 784 W/m² | - |
| 1777997388 | 13.89° C | 35% | 1008.6 hPa | 0 mm | - | 778 W/m² | - |
| 1777997087 | 13.89° C | 35% | 1008.6 hPa | 0 mm | - | 641 W/m² | - |
| 1777996783 | 14.44° C | 34% | 1009 hPa | 0 mm | - | 787 W/m² | - |
| 1777996479 | 15° C | 33% | 1008.9 hPa | 0 mm | - | 730 W/m² | - |
* Rain latest hour (hover to see other rain measurements)
** Current wind speed in m/s (hover to see current wind gust speed)